This is the latest recevied weather packets stored in our database for station/object WC4PEM-10. If no packets are shown the sender has not sent any weather packets the latest 10 day(s).
| Time | Temp. | Humidity | Pressure | Rain* | Wind** | Luminosity | Snow |
|---|---|---|---|---|---|---|---|
| 1777442250 | 18.33° C | 96% | 1016.3 hPa | 0 mm | - | - | - |
| 1777442207 | 18.33° C | 95% | 1016 hPa | 0 mm | - | - | - |
| 1777441907 | 18.33° C | 96% | 1016.3 hPa | 0 mm | - | - | - |
| 1777441779 | 18.33° C | 96% | 1016.3 hPa | 0 mm | - | - | - |
| 1777441607 | 18.33° C | 96% | 1016.3 hPa | 0 mm | - | - | - |
| 1777441307 | 18.33° C | 96% | 1016.4 hPa | 0 mm | - | - | - |
| 1777441238 | 17.78° C | 94% | 1016.4 hPa | 0 mm | - | - | - |
| 1777441007 | 17.78° C | 94% | 1016.4 hPa | 0 mm | - | - | - |
| 1777440889 | 17.78° C | 94% | 1016.6 hPa | 0 mm | - | - | - |
| 1777440707 | 17.78° C | 94% | 1016.6 hPa | 0 mm | - | - | - |
| 1777440632 | 17.78° C | 94% | 1016.7 hPa | 0 mm | - | - | - |
| 1777440407 | 17.78° C | 94% | 1016.7 hPa | 0 mm | - | - | - |
| 1777440107 | 18.33° C | 94% | 1016.4 hPa | 0 mm | - | - | - |
| 1777439928 | 18.33° C | 93% | 1016.3 hPa | 0 mm | - | - | - |
| 1777439807 | 18.33° C | 93% | 1016.3 hPa | 0 mm | - | - | - |
| 1777439507 | 18.33° C | 93% | 1016.4 hPa | 0 mm | - | - | - |
| 1777439348 | 18.33° C | 92% | 1016.4 hPa | 0 mm | - | - | - |
| 1777439207 | 18.33° C | 92% | 1016.4 hPa | 0 mm | - | - | - |
| 1777439081 | 18.89° C | 92% | 1016.3 hPa | 0 mm | - | - | - |
| 1777438948 | 19.44° C | 90% | 1016.7 hPa | 0 mm | - | - | - |
| 1777438907 | 18.89° C | 92% | 1016.3 hPa | 0 mm | - | - | - |
| 1777438894 | 19.44° C | 90% | 1016.7 hPa | 0 mm | - | - | - |
| 1777438839 | 19.44° C | 90% | 1016.7 hPa | 0 mm | - | - | - |
| 1777438836 | 18.89° C | 92% | 1016.4 hPa | 0 mm | - | - | - |
| 1777438784 | 19.44° C | 90% | 1016.7 hPa | 0 mm | - | - | - |
* Rain latest hour (hover to see other rain measurements)
** Current wind speed in m/s (hover to see current wind gust speed)